When you browse on this site, cookies collect data to enhance your experience and personalize the content and advertising you see.
Visit our Privacy Policy to learn more. By continuing to use the site, you agree to this use of cookies and data.
  • In Czech Republic
  • List of Countries
  • For 7 days
  • Water Temperature
  • Satellite Maps
  • Weather Map
  • Weather Widgets
  • user-avatar
    Login

    Hourly Weather Mesquite

    Today, 19 April, Friday

    Time Temperature Precipitation Wind Pressure Humidity
    00:00 +13°C° 0 mm 4 mps 748 mmHg 58%
    01:00 +13°C° 0 mm 5 mps 748 mmHg 56%
    02:00 +13°C° 0 mm 5 mps 748 mmHg 55%
    03:00 +13°C° 0 mm 6 mps 748 mmHg 54%
    04:00 +13°C° 0 mm 6 mps 748 mmHg 53%
    05:00 +11°C° 0 mm 6 mps 749 mmHg 53%
    06:00 +11°C° 0 mm 6 mps 749 mmHg 53%
    07:00 +12°C° 0 mm 7 mps 750 mmHg 53%
    08:00 +14°C° 0 mm 7 mps 750 mmHg 54%
    09:00 +15°C° 0 mm 8 mps 751 mmHg 55%
    10:00 +16°C° 0 mm 8 mps 751 mmHg 52%
    11:00 +17°C° 0 mm 8 mps 751 mmHg 50%
    12:00 +17°C° 0 mm 7 mps 751 mmHg 47%
    13:00 +18°C° 0 mm 7 mps 751 mmHg 46%
    14:00 +20°C° 0 mm 7 mps 751 mmHg 44%
    15:00 +20°C° 0 mm 7 mps 750 mmHg 42%
    16:00 +20°C° 0 mm 6 mps 750 mmHg 44%
    17:00 +19°C° 0 mm 6 mps 750 mmHg 47%
    18:00 +19°C° 0 mm 5 mps 750 mmHg 49%
    19:00 +18°C° 0 mm 4 mps 750 mmHg 49%
    20:00 +17°C° 0 mm 3 mps 750 mmHg 50%
    21:00 +16°C° 0 mm 2 mps 751 mmHg 50%
    22:00 +15°C° 0 mm 2 mps 751 mmHg 52%
    23:00 +15°C° 0 mm 1 mps 751 mmHg 54%

    Tomorrow, 20 April, Saturday

    Time Temperature Precipitation Wind Pressure Humidity
    00:00 +13°C° 0 mm 0 mps 751 mmHg 56%
    01:00 +14°C° 0 mm 1 mps 750 mmHg 57%
    02:00 +14°C° 0 mm 1 mps 750 mmHg 57%
    03:00 +14°C° 0 mm 1 mps 750 mmHg 58%
    04:00 +13°C° 0 mm 1 mps 750 mmHg 58%
    05:00 +13°C° 0 mm 1 mps 750 mmHg 58%
    06:00 +13°C° 0 mm 1 mps 750 mmHg 59%
    07:00 +15°C° 0 mm 1 mps 750 mmHg 55%
    08:00 +17°C° 0 mm 2 mps 751 mmHg 52%
    09:00 +19°C° 0 mm 2 mps 751 mmHg 49%
    10:00 +21°C° 0 mm 3 mps 751 mmHg 46%
    11:00 +22°C° 0 mm 3 mps 750 mmHg 43%
    12:00 +25°C° 0 mm 4 mps 750 mmHg 40%
    13:00 +26°C° 0 mm 4 mps 749 mmHg 42%
    14:00 +26°C° 0 mm 5 mps 748 mmHg 43%
    15:00 +27°C° 0 mm 5 mps 748 mmHg 45%
    16:00 +26°C° 0 mm 5 mps 747 mmHg 50%
    17:00 +26°C° 0 mm 5 mps 747 mmHg 55%
    18:00 +25°C° 0 mm 5 mps 747 mmHg 60%
    19:00 +22°C° 0 mm 5 mps 747 mmHg 65%
    20:00 +21°C° 0 mm 5 mps 747 mmHg 70%
    21:00 +20°C° 0 mm 5 mps 747 mmHg 75%
    22:00 +19°C° 0 mm 5 mps 747 mmHg 75%
    23:00 +19°C° 0 mm 5 mps 747 mmHg 75%

    Day after tomorrow, 21 April, Sunday

    Time Temperature Precipitation Wind Pressure Humidity
    00:00 +17°C° 0 mm 5 mps 747 mmHg 76%
    01:00 +17°C° 0 mm 6 mps 746 mmHg 75%
    02:00 +16°C° 0 mm 6 mps 746 mmHg 75%
    03:00 +16°C° 0 mm 6 mps 746 mmHg 74%
    04:00 +16°C° 0 mm 6 mps 746 mmHg 74%
    05:00 +15°C° 0 mm 5 mps 746 mmHg 75%
    06:00 +15°C° 0 mm 5 mps 747 mmHg 75%
    07:00 +16°C° 0 mm 6 mps 747 mmHg 73%
    08:00 +18°C° 0 mm 7 mps 747 mmHg 71%
    09:00 +21°C° 0 mm 7 mps 748 mmHg 69%
    10:00 +22°C° 0 mm 8 mps 748 mmHg 65%
    11:00 +24°C° 0 mm 9 mps 748 mmHg 62%
    12:00 +27°C° 0 mm 9 mps 747 mmHg 58%
    13:00 +27°C° 0 mm 9 mps 747 mmHg 57%
    14:00 +28°C° 0 mm 10 mps 746 mmHg 57%
    15:00 +29°C° 0 mm 10 mps 745 mmHg 56%
    16:00 +28°C° 0 mm 9 mps 745 mmHg 59%
    17:00 +27°C° 0 mm 8 mps 745 mmHg 63%
    18:00 +27°C° 0 mm 8 mps 745 mmHg 67%
    19:00 +26°C° 0 mm 8 mps 745 mmHg 67%
    20:00 +24°C° 0 mm 9 mps 746 mmHg 67%
    21:00 +23°C° 0 mm 9 mps 746 mmHg 67%
    22:00 +22°C° 0 mm 9 mps 746 mmHg 68%
    23:00 +21°C° 0 mm 9 mps 747 mmHg 69%

    22 April, Monday

    Time Temperature Precipitation Wind Pressure Humidity
    00:00 +21°C° 0 mm 8 mps 747 mmHg 71%
    01:00 +20°C° 0 mm 8 mps 747 mmHg 74%
    02:00 +20°C° 0 mm 7 mps 746 mmHg 78%
    03:00 +18°C° 0 mm 7 mps 746 mmHg 81%
    04:00 +18°C° 0 mm 7 mps 746 mmHg 84%
    05:00 +19°C° 0 mm 6 mps 747 mmHg 87%
    06:00 +17°C° 0 mm 6 mps 747 mmHg 90%
    07:00 +19°C° 0 mm 6 mps 747 mmHg 86%
    08:00 +20°C° 0 mm 7 mps 748 mmHg 83%
    09:00 +21°C° 0 mm 7 mps 748 mmHg 79%
    10:00 +22°C° 0 mm 7 mps 748 mmHg 76%
    11:00 +23°C° 0 mm 7 mps 748 mmHg 72%
    12:00 +24°C° 0 mm 7 mps 748 mmHg 69%
    13:00 +26°C° 0 mm 6 mps 748 mmHg 68%
    14:00 +26°C° 0 mm 6 mps 747 mmHg 68%
    15:00 +27°C° 0 mm 6 mps 747 mmHg 67%
    16:00 +27°C° 0 mm 5 mps 746 mmHg 69%
    17:00 +27°C° 0 mm 5 mps 746 mmHg 70%
    18:00 +27°C° 0 mm 4 mps 746 mmHg 72%
    19:00 +26°C° 0 mm 4 mps 747 mmHg 75%
    20:00 +25°C° 0 mm 4 mps 747 mmHg 78%
    21:00 +25°C° 0 mm 4 mps 747 mmHg 82%
    22:00 +23°C° 0 mm 5 mps 748 mmHg 83%
    23:00 +23°C° 0 mm 5 mps 748 mmHg 85%

    23 April, Tuesday

    Time Temperature Precipitation Wind Pressure Humidity
    00:00 +22°C° 0 mm 5 mps 748 mmHg 86%
    01:00 +22°C° 0 mm 5 mps 748 mmHg 87%
    02:00 +21°C° 0 mm 5 mps 748 mmHg 87%
    03:00 +21°C° 0 mm 5 mps 747 mmHg 88%
    04:00 +21°C° 0 mm 4 mps 748 mmHg 89%
    05:00 +21°C° 0 mm 4 mps 748 mmHg 89%
    06:00 +20°C° 0 mm 3 mps 748 mmHg 90%
    07:00 +21°C° 0.1 mm 3 mps 749 mmHg 89%
    08:00 +21°C° 0.1 mm 3 mps 749 mmHg 89%
    09:00 +21°C° 0.1 mm 3 mps 750 mmHg 88%
    10:00 +23°C° 0.1 mm 4 mps 749 mmHg 82%
    11:00 +25°C° 0.1 mm 5 mps 749 mmHg 77%
    12:00 +26°C° 0.1 mm 6 mps 749 mmHg 71%
    13:00 +26°C° 0.1 mm 6 mps 748 mmHg 74%
    14:00 +26°C° 0.1 mm 6 mps 748 mmHg 76%
    15:00 +24°C° 0.1 mm 6 mps 747 mmHg 78%
    16:00 +25°C° 0 mm 5 mps 747 mmHg 79%
    17:00 +25°C° 0 mm 4 mps 747 mmHg 81%
    18:00 +25°C° 0 mm 4 mps 747 mmHg 82%
    19:00 +24°C° 0.6 mm 3 mps 747 mmHg 84%
    20:00 +24°C° 0.6 mm 3 mps 748 mmHg 86%
    21:00 +22°C° 0.6 mm 3 mps 748 mmHg 88%
    22:00 +22°C° 3.1 mm 3 mps 748 mmHg 88%
    23:00 +22°C° 3.1 mm 4 mps 748 mmHg 88%

    24 April, Wednesday

    Time Temperature Precipitation Wind Pressure Humidity
    00:00 +21°C° 3.1 mm 4 mps 749 mmHg 88%
    01:00 +21°C° 1.3 mm 4 mps 748 mmHg 90%
    02:00 +21°C° 1.3 mm 4 mps 748 mmHg 91%
    03:00 +20°C° 1.3 mm 3 mps 748 mmHg 93%
    04:00 +20°C° 1.2 mm 3 mps 748 mmHg 93%
    05:00 +20°C° 1.2 mm 3 mps 748 mmHg 93%
    06:00 +20°C° 1.2 mm 3 mps 748 mmHg 93%
    07:00 +21°C° 0 mm 3 mps 748 mmHg 90%
    08:00 +21°C° 0 mm 3 mps 748 mmHg 87%
    09:00 +22°C° 0 mm 3 mps 749 mmHg 84%
    10:00 +24°C° 0.1 mm 3 mps 749 mmHg 80%
    11:00 +25°C° 0.1 mm 2 mps 749 mmHg 76%
    12:00 +25°C° 0.1 mm 2 mps 749 mmHg 72%
    13:00 +25°C° 0.7 mm 2 mps 748 mmHg 73%
    14:00 +25°C° 0.7 mm 2 mps 748 mmHg 75%
    15:00 +25°C° 0.7 mm 2 mps 747 mmHg 76%
    16:00 +24°C° 0.4 mm 2 mps 747 mmHg 79%
    17:00 +23°C° 0.4 mm 2 mps 747 mmHg 83%
    18:00 +23°C° 0.4 mm 2 mps 747 mmHg 86%
    19:00 +21°C° 0 mm 2 mps 747 mmHg 87%
    20:00 +22°C° 0 mm 1 mps 747 mmHg 88%
    21:00 +21°C° 0 mm 1 mps 747 mmHg 90%
    22:00 +21°C° 0 mm 1 mps 747 mmHg 89%
    23:00 +21°C° 0 mm 1 mps 747 mmHg 89%
    Show more